Date Time,Air Temp,Sky Temp,Clarity,Light Level,Rain Sensor,Readings
2011-03-08 00:01:20,14.9,-25.0,39.9,0.0,2.3,111
2011-03-08 00:06:20,14.8,-25.3,40.1,0.0,2.2,112
2011-03-08 00:11:20,14.8,-24.9,39.7,0.0,2.2,112
2011-03-08 00:16:20,14.8,-24.7,39.5,0.0,2.2,111
2011-03-08 00:21:20,14.8,-25.1,39.9,0.0,2.2,111
2011-03-08 00:26:20,14.7,-25.1,39.9,0.0,2.2,112
2011-03-08 00:31:20,14.6,-25.2,39.8,0.0,2.2,111
2011-03-08 00:36:20,14.6,-24.7,39.3,0.0,2.2,112
2011-03-08 00:41:20,14.9,-25.3,40.2,0.0,2.2,111
2011-03-08 00:46:20,15.0,-25.0,40.0,0.0,2.3,112
2011-03-08 00:51:20,15.0,-25.2,40.3,0.0,2.3,112
2011-03-08 00:56:20,15.1,-25.0,40.1,0.0,2.3,111
2011-03-08 01:01:20,15.1,-24.5,39.6,0.0,2.3,112
2011-03-08 01:06:20,15.2,-25.0,40.1,0.0,2.4,111
2011-03-08 01:11:20,15.2,-24.7,39.9,0.0,2.3,111
2011-03-08 01:16:20,15.2,-24.6,39.9,0.0,2.4,112
2011-03-08 01:21:20,15.3,-24.4,39.7,0.0,2.3,112
2011-03-08 01:26:20,15.2,-24.8,40.0,0.0,2.3,111
2011-03-08 01:31:20,15.2,-24.7,39.8,0.0,2.3,112
2011-03-08 01:36:20,15.2,-24.2,39.4,0.0,2.3,111
2011-03-08 01:41:20,15.3,-24.0,39.3,0.0,2.4,111
2011-03-08 01:46:20,15.3,-24.3,39.7,0.0,2.4,112
2011-03-08 01:51:20,15.3,-24.3,39.6,0.0,2.4,111
2011-03-08 01:56:20,15.4,-24.4,39.8,0.0,2.4,112
2011-03-08 02:01:20,15.4,-24.3,39.7,0.0,2.4,111
2011-03-08 02:06:20,15.5,-24.0,39.5,0.0,2.4,112
2011-03-08 02:11:20,15.6,-23.6,39.1,0.0,2.4,111
2011-03-08 02:16:20,15.7,-23.4,39.1,0.0,2.5,111
2011-03-08 02:21:20,15.6,-23.7,39.3,0.0,2.4,111
2011-03-08 02:26:20,15.7,-23.0,38.7,0.0,2.4,111
2011-03-08 02:31:20,15.4,-23.1,38.5,0.0,2.5,112
2011-03-08 02:36:20,15.7,-24.1,39.8,0.0,2.4,112
2011-03-08 02:41:20,15.6,-23.3,38.9,0.0,2.4,111
2011-03-08 02:46:20,15.6,-23.5,39.1,0.0,2.4,111
2011-03-08 02:51:20,15.6,-24.1,39.7,0.0,2.4,111
2011-03-08 02:56:20,15.6,-24.2,39.7,0.0,2.4,112
2011-03-08 03:01:20,15.6,-23.4,38.9,0.0,2.4,112
2011-03-08 03:06:20,15.7,-22.6,38.3,0.0,2.4,112
2011-03-08 03:11:20,15.7,-22.8,38.5,0.0,2.4,111
2011-03-08 03:16:20,15.7,-23.1,38.7,0.0,2.4,111
2011-03-08 03:21:20,15.7,-23.5,39.2,0.0,2.4,112
2011-03-08 03:26:20,15.6,-24.5,40.0,0.0,2.4,111
2011-03-08 03:31:20,15.5,-24.1,39.5,0.0,2.3,111
2011-03-08 03:36:20,15.5,-24.3,39.8,0.0,2.3,112
2011-03-08 03:41:20,15.6,-23.2,38.8,0.0,2.3,111
2011-03-08 03:46:20,15.7,-22.9,38.5,0.0,2.4,111
2011-03-08 03:51:20,15.7,-23.6,39.3,0.0,2.4,112
2011-03-08 03:56:20,15.6,-23.6,39.3,0.0,2.4,111
2011-03-08 04:01:20,15.6,-23.5,39.1,0.0,2.4,112
2011-03-08 04:06:20,15.6,-23.0,38.7,0.0,2.4,111
2011-03-08 04:11:20,15.7,-22.6,38.3,0.0,2.4,112
2011-03-08 04:16:20,15.8,-22.2,37.9,0.0,2.4,111
2011-03-08 04:21:20,15.8,-22.0,37.7,0.0,2.4,112
2011-03-08 04:26:20,15.7,-22.9,38.7,0.0,2.4,112
2011-03-08 04:31:20,15.7,-22.2,37.9,0.0,2.4,111
2011-03-08 04:36:20,15.7,-23.5,39.2,0.0,2.4,112
2011-03-08 04:41:20,15.6,-23.5,39.1,0.0,2.4,111
2011-03-08 04:46:20,15.6,-22.8,38.4,0.0,2.4,112
2011-03-08 04:51:20,15.7,-21.9,37.5,0.0,2.4,111
2011-03-08 04:56:20,15.7,-21.6,37.3,0.0,2.4,112
2011-03-08 05:01:20,15.7,-21.4,37.1,0.0,2.4,112
2011-03-08 05:06:20,15.7,-21.2,36.9,0.0,2.4,111
2011-03-08 05:11:20,15.7,-21.4,37.1,0.0,2.4,112
2011-03-08 05:16:20,15.6,-22.2,37.8,0.0,2.4,111
2011-03-08 05:21:20,15.6,-22.4,38.0,0.0,2.4,112
2011-03-08 05:26:20,15.6,-21.2,36.8,0.0,2.4,112
2011-03-08 05:31:20,15.7,-21.2,36.8,0.1,2.4,111
2011-03-08 05:36:20,15.7,-21.5,37.2,0.2,2.4,112
2011-03-08 05:41:20,15.6,-21.3,37.0,0.3,2.4,111
2011-03-08 05:46:20,15.7,-21.3,37.0,0.6,2.4,112
2011-03-08 05:51:20,15.7,-21.4,37.1,1.2,2.4,112
2011-03-08 05:56:20,15.6,-21.8,37.4,2.3,2.4,111
2011-03-08 06:01:20,15.6,-21.4,37.0,4.4,2.4,112
2011-03-08 06:06:20,15.6,-21.4,37.1,8.1,2.4,111
2011-03-08 06:11:20,15.7,-21.4,37.1,13.6,2.4,112
2011-03-08 06:16:20,15.8,-21.4,37.2,19.8,2.5,112
2011-03-08 06:21:20,15.8,-21.3,37.2,24.8,2.5,111
2011-03-08 06:26:20,15.9,-21.3,37.2,27.9,2.5,112
2011-03-08 06:31:20,16.0,-21.6,37.5,29.7,2.4,111
2011-03-08 06:36:20,16.0,-21.4,37.4,30.6,2.4,112
2011-03-08 06:41:20,16.0,-21.0,37.0,31.2,2.4,111
2011-03-08 06:46:20,16.1,-21.4,37.5,31.5,2.4,112
2011-03-08 06:51:20,16.1,-20.8,36.9,31.7,2.4,112
2011-03-08 06:56:20,16.2,-21.1,37.3,31.9,2.4,112
2011-03-08 07:01:20,16.3,-20.7,37.0,32.0,2.3,111
2011-03-08 07:06:20,16.4,-20.8,37.3,32.0,2.3,112
2011-03-08 07:11:20,16.5,-20.8,37.3,32.1,2.3,111
2011-03-08 07:16:20,16.6,-21.9,38.5,32.2,2.3,112
2011-03-08 07:21:20,16.7,-21.9,38.6,32.2,2.3,111
2011-03-08 07:26:20,16.8,-22.0,38.8,32.2,2.3,112
2011-03-08 07:31:20,16.9,-22.0,38.9,32.2,2.3,111
2011-03-08 07:36:20,17.0,-21.6,38.6,32.3,2.3,112
2011-03-08 07:41:20,17.1,-21.8,38.9,32.3,2.3,111
2011-03-08 07:46:20,17.3,-21.6,38.9,32.3,2.3,112
2011-03-08 07:51:20,17.5,-21.1,38.7,32.3,2.3,112
2011-03-08 07:56:20,17.8,-20.9,38.7,32.3,2.3,111
2011-03-08 08:01:20,18.1,-21.0,39.1,32.3,2.3,112
2011-03-08 08:06:20,18.3,-20.7,39.0,32.4,2.3,112
2011-03-08 08:11:20,18.5,-20.6,39.0,32.4,2.3,111
2011-03-08 08:16:20,18.6,-20.6,39.2,32.4,2.3,112
2011-03-08 08:21:20,18.4,-20.3,38.7,32.4,2.3,112
2011-03-08 08:26:20,18.9,-20.4,39.3,32.4,2.3,112
2011-03-08 08:31:20,18.9,-20.3,39.3,32.4,2.3,111
2011-03-08 08:36:20,19.0,-20.1,39.1,32.4,2.4,112
2011-03-08 08:41:20,19.1,-20.2,39.3,32.4,2.3,112
2011-03-08 08:46:20,19.1,-20.0,39.0,32.4,2.2,111
2011-03-08 08:51:20,19.1,-19.6,38.6,32.4,2.3,112
2011-03-08 08:56:20,19.1,-19.4,38.5,32.4,2.3,111
2011-03-08 09:01:20,19.1,-19.2,38.3,32.4,2.3,112
2011-03-08 09:06:20,19.2,-18.7,37.9,32.5,2.4,112
2011-03-08 09:11:20,19.4,-18.8,38.2,32.5,2.4,111
2011-03-08 09:16:20,19.6,-19.1,38.7,32.5,2.3,112
2011-03-08 09:21:20,19.6,-19.3,39.0,32.5,2.3,111
2011-03-08 09:26:20,19.7,-19.2,38.8,32.5,2.3,112
2011-03-08 09:31:20,19.7,-19.4,39.1,32.5,2.3,112
2011-03-08 09:36:20,19.7,-19.5,39.2,32.5,2.3,111
2011-03-08 09:41:20,19.7,-19.6,39.4,32.5,2.3,111
2011-03-08 09:46:20,19.4,-19.3,38.8,32.5,2.3,112
2011-03-08 09:51:20,20.0,-18.4,38.4,32.5,2.3,111
2011-03-08 09:56:20,20.8,-18.3,39.1,32.5,2.2,112
2011-03-08 10:01:20,21.4,-19.2,40.7,32.5,2.0,111
2011-03-08 10:06:20,21.8,-18.3,40.2,32.6,2.3,112
2011-03-08 10:11:20,22.3,-19.0,41.3,32.6,2.5,112
2011-03-08 10:16:20,22.6,-18.8,41.4,32.6,2.3,112
2011-03-08 10:21:20,22.9,-18.5,41.4,32.6,2.3,111
2011-03-08 10:26:20,23.1,-18.6,41.7,32.6,2.3,112
2011-03-08 10:31:20,23.2,-17.8,41.1,32.6,2.3,111
2011-03-08 10:36:20,23.4,-17.8,41.2,32.6,2.3,112
2011-03-08 10:41:20,23.7,-17.8,41.5,32.6,2.3,111
2011-03-08 10:46:20,23.9,-17.1,41.0,32.6,2.3,112
2011-03-08 10:51:20,24.3,-17.3,41.6,32.6,2.3,111
2011-03-08 10:56:20,24.4,-18.1,42.5,32.6,2.3,112
2011-03-08 11:01:20,24.3,-17.4,41.7,32.6,2.3,111
2011-03-08 11:06:20,24.2,-17.2,41.4,32.6,2.3,111
2011-03-08 11:11:20,24.0,-17.6,41.6,32.6,2.3,112
2011-03-08 11:16:20,23.9,-17.2,41.1,32.6,2.3,111
2011-03-08 11:21:20,23.9,-16.5,40.4,32.6,2.3,112
2011-03-08 11:26:20,24.4,-17.0,41.3,32.6,2.3,111
2011-03-08 11:31:20,24.6,-16.2,40.8,32.6,2.3,112
2011-03-08 11:36:20,24.9,-16.7,41.6,32.6,2.2,112
2011-03-08 11:41:20,24.8,-16.5,41.4,32.6,2.2,111
2011-03-08 11:46:20,24.5,-15.5,40.0,32.6,2.3,111
2011-03-08 11:51:20,25.2,-17.2,42.3,32.6,2.3,112
2011-03-08 11:56:20,25.0,-16.5,41.6,32.6,2.3,111
2011-03-08 12:01:21,25.0,-15.4,40.4,32.6,2.3,112
2011-03-08 12:06:21,25.3,-15.5,40.8,32.6,2.3,111
2011-03-08 12:11:21,25.6,-15.1,40.6,32.6,2.3,112
2011-03-08 12:16:21,25.7,-16.0,41.7,32.6,2.3,111
2011-03-08 12:21:21,25.8,-15.5,41.2,32.6,2.3,112
2011-03-08 12:26:21,25.8,-14.9,40.7,32.6,2.3,112
2011-03-08 12:31:21,26.0,-14.6,40.6,32.6,2.3,111
2011-03-08 12:36:21,26.2,-14.5,40.6,32.6,2.3,112
2011-03-08 12:41:21,26.2,-14.6,40.8,32.6,2.3,111
2011-03-08 12:46:21,26.2,-14.5,40.7,32.6,2.3,112
2011-03-08 12:51:21,26.1,-15.9,42.0,32.6,2.3,111
2011-03-08 12:56:21,25.8,-15.8,41.5,32.6,2.3,112
2011-03-08 13:01:21,25.0,-16.6,41.6,32.6,2.3,111
2011-03-08 13:06:21,25.1,-15.1,40.2,32.6,2.3,111
2011-03-08 13:11:21,25.2,-16.2,41.4,32.6,2.3,112
2011-03-08 13:16:21,25.1,-15.0,40.1,32.6,2.3,111
2011-03-08 13:21:21,25.3,-14.6,39.9,32.6,2.3,112
2011-03-08 13:26:21,25.6,-15.7,41.3,32.6,2.3,112
2011-03-08 13:31:21,25.5,-15.8,41.3,32.6,2.3,111
2011-03-08 13:36:21,25.3,-15.8,41.1,32.6,2.3,112
2011-03-08 13:41:21,25.3,-15.6,40.9,32.6,2.3,111
2011-03-08 13:46:21,25.4,-14.7,40.1,32.6,2.3,111
2011-03-08 13:51:21,25.5,-15.6,41.1,32.6,2.3,112
2011-03-08 13:56:21,25.5,-15.5,41.0,32.6,2.3,111
2011-03-08 14:01:21,25.3,-16.0,41.3,32.6,2.3,111
2011-03-08 14:06:21,25.2,-16.0,41.1,32.6,2.3,112
2011-03-08 14:11:21,25.2,-15.5,40.7,32.6,2.3,111
2011-03-08 14:16:21,25.2,-16.1,41.3,32.6,2.3,112
2011-03-08 14:21:21,25.2,-15.4,40.5,32.6,2.3,111
2011-03-08 14:26:21,25.3,-15.3,40.6,32.6,2.3,112
2011-03-08 14:31:21,25.3,-16.1,41.4,32.6,2.3,111
2011-03-08 14:36:21,25.3,-15.3,40.6,32.6,2.3,112
2011-03-08 14:41:21,25.4,-15.9,41.3,32.6,2.3,111
2011-03-08 14:46:21,25.3,-16.4,41.7,32.6,2.3,111
2011-03-08 14:51:21,25.3,-15.2,40.5,32.6,2.3,112
2011-03-08 14:56:21,25.4,-16.0,41.4,32.6,2.3,111
2011-03-08 15:01:21,25.3,-15.7,41.0,32.6,2.3,112
2011-03-08 15:06:21,25.3,-16.1,41.4,32.6,2.3,111
2011-03-08 15:11:21,25.3,-16.2,41.5,32.6,2.3,112
2011-03-08 15:16:21,25.2,-16.4,41.5,32.6,2.3,111
2011-03-08 15:21:21,25.1,-16.6,41.7,32.6,2.3,111
2011-03-08 15:26:21,24.9,-16.5,41.4,32.6,2.3,112
2011-03-08 15:31:21,24.9,-16.5,41.4,32.6,2.3,111
2011-03-08 15:36:21,24.7,-17.3,42.0,32.6,2.3,112
2011-03-08 15:41:21,24.6,-16.2,40.8,32.6,2.3,112
2011-03-08 15:46:21,24.5,-17.4,42.0,32.6,2.3,111
2011-03-08 15:51:21,24.3,-17.6,42.0,32.6,2.3,111
2011-03-08 15:56:21,24.1,-17.1,41.2,32.6,2.3,112
2011-03-08 16:01:21,24.0,-15.9,39.8,32.6,2.2,112
2011-03-08 16:06:21,24.0,-15.7,39.7,32.6,2.2,111
2011-03-08 16:11:21,23.9,-15.8,39.7,32.6,2.1,111
2011-03-08 16:16:21,23.9,-17.6,41.5,32.6,2.2,112
2011-03-08 16:21:21,23.7,-17.8,41.5,32.6,2.3,111
2011-03-08 16:26:21,23.5,-18.5,42.0,32.6,2.3,112
2011-03-08 16:31:21,23.2,-19.0,42.2,32.6,2.3,112
2011-03-08 16:36:21,22.8,-19.7,42.6,32.6,2.3,111
2011-03-08 16:41:21,22.4,-20.1,42.6,32.6,2.3,112
2011-03-08 16:46:21,22.2,-19.7,41.9,32.6,2.3,111
2011-03-08 16:51:21,22.0,-19.8,41.8,32.6,2.3,112
2011-03-08 16:56:21,21.8,-20.3,42.0,32.5,2.3,112
2011-03-08 17:01:21,21.6,-19.7,41.3,32.5,2.3,111
2011-03-08 17:06:21,21.3,-20.4,41.7,32.5,2.3,112
2011-03-08 17:11:21,21.0,-20.1,41.1,32.5,2.5,111
2011-03-08 17:16:21,20.8,-20.3,41.1,32.4,2.4,112
2011-03-08 17:21:21,20.5,-20.6,41.1,32.4,2.3,111
2011-03-08 17:26:21,20.2,-20.3,40.4,32.3,2.1,112
2011-03-08 17:31:21,19.9,-20.7,40.6,32.2,1.9,111
2011-03-08 17:36:21,19.6,-20.5,40.1,32.1,1.9,112
2011-03-08 17:41:21,19.4,-20.9,40.2,32.0,2.2,111
2011-03-08 17:46:21,19.1,-20.7,39.8,31.8,2.3,112
2011-03-08 17:51:21,19.0,-21.1,40.0,31.5,2.3,111
2011-03-08 17:56:21,18.8,-20.9,39.7,31.0,2.3,112
2011-03-08 18:01:21,18.3,-20.8,39.2,30.3,2.3,112
2011-03-08 18:06:21,18.4,-20.7,39.1,29.2,2.3,112
2011-03-08 18:11:21,18.1,-20.5,38.5,27.1,2.3,111
2011-03-08 18:16:21,17.9,-19.9,37.9,23.1,2.4,112
2011-03-08 18:21:21,17.9,-15.7,33.6,16.6,2.4,111
2011-03-08 18:26:21,17.9,-10.2,28.1,10.3,2.3,112
2011-03-08 18:31:21,17.9,-17.9,35.7,6.7,2.4,112
2011-03-08 18:36:21,17.9,-14.9,32.8,3.4,2.4,111
2011-03-08 18:41:21,18.0,-12.2,30.2,1.6,2.4,112
2011-03-08 18:46:21,18.0,-10.8,28.8,0.9,2.5,111
2011-03-08 18:51:21,18.0,-17.1,35.1,0.5,2.4,112
2011-03-08 18:56:21,17.9,-19.7,37.7,0.3,2.4,112
2011-03-08 19:01:21,17.8,-20.2,38.0,0.1,2.3,111
2011-03-08 19:06:21,17.7,-20.3,38.0,0.1,2.3,111
2011-03-08 19:11:21,17.6,-20.1,37.7,0.0,2.3,112
2011-03-08 19:16:21,17.4,-20.4,37.8,0.0,2.3,112
2011-03-08 19:21:21,17.8,-20.7,38.5,0.0,2.3,111
2011-03-08 19:26:21,17.9,-20.8,38.7,0.0,2.3,111
2011-03-08 19:31:21,17.9,-20.8,38.7,0.0,2.3,111
2011-03-08 19:36:21,17.8,-21.0,38.9,0.0,2.3,112
2011-03-08 19:41:21,17.8,-20.6,38.4,0.0,2.3,112
2011-03-08 19:46:21,17.8,-20.7,38.5,0.0,2.3,111
2011-03-08 19:51:21,17.7,-20.4,38.1,0.0,2.3,111
2011-03-08 19:56:21,17.7,-20.5,38.2,0.0,2.2,112
2011-03-08 20:01:21,17.6,-19.8,37.5,0.0,2.2,112
2011-03-08 20:06:21,17.6,-17.8,35.4,0.0,2.1,111
2011-03-08 20:11:21,17.6,-19.6,37.2,0.0,2.1,112
2011-03-08 20:16:21,17.6,-18.9,36.4,0.0,2.1,111
2011-03-08 20:21:21,17.6,-19.2,36.8,0.0,2.2,112
2011-03-08 20:26:21,17.6,-20.0,37.6,0.0,2.2,111
2011-03-08 20:31:21,17.6,-19.5,37.1,0.0,2.2,112
2011-03-08 20:36:21,17.6,-18.4,36.0,0.0,2.3,111
2011-03-08 20:41:21,17.5,-17.0,34.6,0.0,2.3,113
2011-03-08 20:46:21,17.5,-15.4,32.9,0.0,2.3,111
2011-03-08 20:51:21,17.5,-18.0,35.5,0.0,2.3,111
2011-03-08 20:56:21,17.4,-19.6,37.0,0.0,2.3,112
2011-03-08 21:01:21,17.2,-20.5,37.7,0.0,2.3,111
2011-03-08 21:06:21,17.1,-21.0,38.1,0.0,2.3,112
2011-03-08 21:11:21,17.1,-21.4,38.5,0.0,2.3,111
2011-03-08 21:16:21,17.1,-21.8,38.9,0.0,2.3,112
2011-03-08 21:21:21,17.1,-21.6,38.7,0.0,2.3,111
2011-03-08 21:26:21,17.1,-21.8,38.9,0.0,2.3,111
2011-03-08 21:31:21,17.0,-21.6,38.6,0.0,2.3,112
2011-03-08 21:36:21,17.0,-21.1,38.1,0.0,2.3,111
2011-03-08 21:41:21,17.0,-20.6,37.7,0.0,2.3,112
2011-03-08 21:46:21,17.0,-20.7,37.7,0.0,2.3,111
2011-03-08 21:51:21,17.3,-20.6,37.9,0.0,2.3,112
2011-03-08 21:56:21,17.0,-20.2,37.2,0.0,2.3,111
2011-03-08 22:01:21,16.9,-19.6,36.5,0.0,2.3,112
2011-03-08 22:06:21,16.9,-19.1,35.9,0.0,2.3,111
2011-03-08 22:11:21,16.9,-18.4,35.3,0.0,2.3,112
2011-03-08 22:16:21,16.9,-17.7,34.6,0.0,2.3,111
2011-03-08 22:21:21,16.9,-10.9,27.7,0.0,2.3,111
2011-03-08 22:26:21,16.9,-17.8,34.7,0.0,2.3,112
2011-03-08 22:31:21,16.9,-16.9,33.9,0.0,2.3,111
2011-03-08 22:36:21,16.9,-15.6,32.6,0.0,2.3,112
2011-03-08 22:41:21,16.9,-15.8,32.7,0.0,2.3,111
2011-03-08 22:46:21,16.9,-14.5,31.4,0.0,2.3,112
2011-03-08 22:51:21,16.9,-13.2,30.1,0.0,2.3,111
2011-03-08 22:56:21,16.9,-12.8,29.7,0.1,2.3,112
2011-03-08 23:01:21,16.9,-13.9,30.8,0.1,2.3,111
2011-03-08 23:06:21,16.9,-15.1,32.0,0.0,2.3,112
2011-03-08 23:11:21,16.9,-15.9,32.7,0.0,2.3,111
2011-03-08 23:16:21,16.8,-15.7,32.5,0.0,2.3,112
2011-03-08 23:21:21,16.7,-14.9,31.6,0.0,2.3,111
2011-03-08 23:26:21,16.6,-14.3,30.9,0.0,2.3,111
2011-03-08 23:31:21,16.6,-13.4,30.0,0.0,2.3,112
2011-03-08 23:36:21,16.6,-12.1,28.7,0.0,2.3,111
2011-03-08 23:41:21,16.6,-13.2,29.8,0.0,2.3,112
2011-03-08 23:46:21,16.7,-15.8,32.4,0.0,2.3,111
2011-03-08 23:51:21,16.6,-18.6,35.2,0.0,2.3,112
2011-03-08 23:56:21,16.6,-20.5,37.1,0.0,2.3,111
